[[{"header":{"parameterUnit":"m.s-1","parameterCategory":1,"la1":30.2991,"la2":30.254,"lo1":-89.0895,"lo2":-89.0444,"dy":0.0017,"dx":0.0017,"nx":28,"ny":28,"refTime":"2024-08-12T03:00:00:Z","depth":0,"parameterNumber":2,"parameterNumberName":"U-component_of_WINDS"},"data":[0,0,0,0,0,0,0,0,0,0,0,0,0,0,0,0,0,0,0,0,0,0,0,0,0,0,0,0,0,0,0,0,0,0,0,0,0,0,0,0,0,0,0,0,0,0,0,0,0,0,0,0,0,0,0,0,0,0,0.9066,0.9067,0,0.9133,0.9133,0.9134,0.9145,0.9145,0.9144,0.9144,0.9213,0.9215,0.9217,0,0,0,0,0,0,0,0,0,0,0,0,0,0.8946,0.8948,0.9066,0.9067,0.9067,0.9132,0.9133,0.9134,0.9146,0.9145,0.9144,0.9144,0.9212,0.9215,0.9218,0,0,0,0,0,0,0,0,0,0,0,0,0,0.9004,0.8949,0.9066,0.9081,0.9083,0.9132,0.9133,0.9135,0.9146,0.9145,0.9144,0.9143,0.9211,0.9214,0.9218,0.9257,0,0,0.9229,0.923,0,0,0,0,0,0,0,0,0.9001,0.9008,0.9078,0.908,0.9082,0.913,0.9116,0.9176,0.9146,0.9122,0.9144,0.9143,0.9186,0.9191,0.9206,0.926,0.9263,0.9229,0.9231,0.9233,0.9234,0,0,0,0,0,0,0,0.8997,0.9006,0.9092,0.9079,0.9082,0.9084,0.9091,0.9128,0.9158,0.9124,0.9125,0.9133,0.9187,0.9202,0.9207,0.9264,0.9229,0.9232,0.9234,0.9236,0.935,0.9351,0,0,0,0,0,0,0.899,0.9002,0.909,0.9094,0.9039,0.9087,0.9095,0.9115,0.9157,0.9163,0.9133,0.9133,0.9197,0.9203,0.921,0.9256,0.9233,0.9236,0.9238,0.9349,0.935,0.9351,0,0,0,0,0,0,0.8987,0.8998,0.9087,0.9048,0.906,0.909,0.9113,0.9117,0.9133,0.9165,0.917,0.9144,0.9196,0.9205,0.9244,0.9259,0.9238,0.9241,0.9348,0.935,0.9351,0.935,0,0,0,0,0,0,0.8984,0.8997,0.9013,0.9049,0.9062,0.9121,0.9114,0.9119,0.9139,0.9139,0.9176,0.9181,0.9196,0.9239,0.9248,0.9263,0.9244,0.9347,0.9349,0.935,0.9349,0.9351,0.9353,0,0,0,0,0,0.898,0.901,0.9013,0.9024,0.9082,0.9122,0.913,0.9146,0.914,0.9155,0.9175,0.918,0.9256,0.9243,0.9253,0.927,0.9346,0.9348,0.935,0.9348,0.935,0.9353,0,0,0,0,0,0,0.8976,0.9015,0.9019,0.9063,0.9089,0.9124,0.9144,0.9149,0.9178,0.9177,0.9197,0.9205,0.9243,0.926,0.9245,0.9308,0.93,0.9304,0.9295,0.9298,0.93,0.9294,0.9247,0,0,0,0,0,0.898,0.9009,0.9042,0.9077,0.909,0.9114,0.9132,0.9143,0.9171,0.9182,0.9205,0.9232,0.9261,0.9281,0.931,0.9351,0.9358,0.9367,0.9369,0.9371,0.9374,0.9394,0.9398,0.9358,0.9358,0.9358,0,0,0.8989,0.9014,0.9032,0.9077,0.9098,0.9127,0.9124,0.9155,0.9176,0.9187,0.9225,0.9242,0.9274,0.9313,0.9332,0.9329,0.9387,0.9374,0.9375,0.9377,0.9397,0.9401,0.9404,0.9359,0.9359,0.9359,0,0,0.9019,0.9042,0.9072,0.9094,0.9126,0.9141,0.9149,0.9182,0.9194,0.9232,0.924,0.9265,0.9317,0.9338,0.9355,0.939,0.9395,0.94,0.941,0.943,0.9433,0.9436,0.9447,0.945,0.9403,0.9403,0.9403,0,0.9026,0.907,0.9087,0.9118,0.9136,0.9146,0.9176,0.9196,0.9236,0.9248,0.9244,0.9307,0.9329,0.9372,0.938,0.9395,0.9402,0.9395,0.9431,0.9434,0.9437,0.9448,0.9452,0.9403,0.9403,0.9403,0.9403,0,0.9076,0.9106,0.9127,0.9164,0.9185,0.9215,0.9235,0.9255,0.9263,0.9279,0.9316,0.9342,0.9376,0.9387,0.9396,0.9431,0.9428,0.9427,0.942,0.9441,0.9451,0.9455,0.9403,0.9403,0.9403,0.9403,0,0,0.9107,0.9151,0.9158,0.9174,0.9209,0.9233,0.9262,0.9294,0.9309,0.9336,0.936,0.9402,0.9401,0.9421,0.9432,0.9449,0.9472,0.9447,0.9447,0.9449,0.951,0.9509,0.9513,0.9476,0.9477,0.9477,0.9507,0,0.914,0.9192,0.9208,0.9252,0.9278,0.9287,0.9312,0.9336,0.9351,0.9375,0.9392,0.9421,0.9419,0.943,0.9448,0.9466,0.9485,0.9464,0.9497,0.9498,0.9488,0.9519,0.9519,0.9545,0.9511,0.9512,0.9512,0,0.9186,0.9212,0.9258,0.9287,0.9299,0.9322,0.9351,0.9375,0.9401,0.941,0.9431,0.944,0.9469,0.9461,0.9501,0.9487,0.9501,0.9512,0.9513,0.9516,0.9506,0.9521,0.9554,0.9558,0.9519,0.9518,0.9518,0,0.92,0.9248,0.9281,0.9294,0.933,0.9345,0.936,0.9386,0.9403,0.9429,0.944,0.9469,0.9484,0.9506,0.9522,0.9515,0.956,0.9553,0.9568,0.9567,0.9576,0.9575,0.9611,0.9588,0.9588,0.9588,0.9587,0,0.9235,0.9262,0.9287,0.9308,0.9338,0.9355,0.9384,0.94,0.9422,0.9445,0.9455,0.9476,0.9496,0.952,0.9532,0.9562,0.957,0.9578,0.958,0.9576,0.9575,0.9585,0.9583,0.9589,0.9588,0.9588,0.9588,0,0.9256,0.9275,0.9311,0.9341,0.9349,0.937,0.9395,0.9414,0.9429,0.9458,0.9465,0.9488,0.9516,0.9534,0.957,0.9579,0.9611,0.9614,0.9602,0.9603,0.9616,0.9614,0.9658,0.9664,0.9638,0.9638,0.9638,0,0.9277,0.9298,0.9329,0.9345,0.936,0.9386,0.9403,0.9419,0.9437,0.9467,0.9482,0.9511,0.9534,0.9578,0.9598,0.9625,0.9628,0.9641,0.9632,0.9626,0.9626,0.9624,0.9625,0.9642,0.9643,0.9643,0.9643,0,0.9309,0.9317,0.9341,0.9368,0.9388,0.9411,0.9433,0.9445,0.9466,0.9485,0.9513,0.9531,0.9566,0.9594,0.9622,0.9637,0.9643,0.9646,0.965,0.9645,0.9637,0.964,0.9604,0.9644,0.9644,0.9644,0.9644,0.9644,0.933,0.9348,0.9372,0.9399,0.9417,0.9437,0.9456,0.9472,0.9496,0.9526,0.9534,0.9563,0.9587,0.9625,0.9641,0.9663,0.9662,0.9668,0.967,0.9671,0.967,0.9634,0.9669,0.9669,0.9668,0.9668,0.9668,0,0.9361,0.9377,0.9401,0.9431,0.9451,0.9455,0.9479,0.9496,0.9521,0.9542,0.9565,0.9596,0.9622,0.9643,0.967,0.9683,0.9686,0.969,0.9688,0.9691,0.9671,0.9664,0.9686,0.9686,0.9686,0.9686,0.9686,0.9686,0.938,0.941,0.942,0.9459,0.9474,0.9502,0.9516,0.9534,0.9551,0.9585,0.9606,0.962,0.9641,0.9669,0.9692,0.9698,0.9706,0.9709,0.9715,0.9695,0.9693,0.9691,0.9684,0.9711,0.9711,0.9733,0.9733,0.9733]},{"header":{"parameterUnit":"m.s-1","parameterCategory":1,"la1":30.2991,"la2":30.254,"lo1":-89.0895,"lo2":-89.0444,"dy":0.0017,"dx":0.0017,"nx":28,"ny":28,"refTime":"2024-08-12T03:00:00:Z","depth":0,"parameterNumber":3,"parameterNumberName":"V-component_of_WINDS"},"data":[0,0,0,0,0,0,0,0,0,0,0,0,0,0,0,0,0,0,0,0,0,0,0,0,0,0,0,0,0,0,0,0,0,0,0,0,0,0,0,0,0,0,0,0,0,0,0,0,0,0,0,0,0,0,0,0,0,0,2.8564,2.8562,0,2.8439,2.8438,2.8436,2.8346,2.8345,2.8345,2.8344,2.821,2.8207,2.8204,0,0,0,0,0,0,0,0,0,0,0,0,0,2.8717,2.8714,2.8564,2.8562,2.8561,2.8439,2.8438,2.8436,2.8346,2.8345,2.8345,2.8344,2.8211,2.8207,2.8204,0,0,0,0,0,0,0,0,0,0,0,0,0,2.8627,2.8714,2.8564,2.8502,2.8495,2.844,2.8438,2.8436,2.8347,2.8345,2.8344,2.8343,2.8212,2.8208,2.8203,2.8199,0,0,2.819,2.8188,0,0,0,0,0,0,0,0,2.8632,2.8621,2.8512,2.8506,2.8498,2.8407,2.8442,2.8356,2.8347,2.8403,2.8344,2.8343,2.8276,2.8266,2.8245,2.8192,2.8187,2.819,2.8187,2.8185,2.8184,0,0,0,0,0,0,0,2.8638,2.8626,2.8514,2.8511,2.8502,2.8477,2.8463,2.8425,2.8347,2.8398,2.8391,2.8378,2.8272,2.825,2.8241,2.8185,2.819,2.8186,2.8183,2.8182,2.8117,2.8118,0,0,0,0,0,0,2.8655,2.8632,2.8518,2.8511,2.8564,2.8475,2.846,2.8437,2.8347,2.8332,2.8379,2.8374,2.8257,2.8246,2.8236,2.8222,2.8185,2.8181,2.8179,2.8116,2.8117,2.8118,0,0,0,0,0,0,2.8659,2.8646,2.8523,2.8569,2.8552,2.8474,2.845,2.8436,2.8413,2.8333,2.8318,2.8371,2.8256,2.8242,2.8208,2.8216,2.8179,2.8175,2.8115,2.8117,2.8118,2.8195,0,0,0,0,0,0,2.8664,2.8648,2.8647,2.857,2.855,2.85,2.845,2.8434,2.8407,2.8399,2.8321,2.8307,2.8254,2.8215,2.8204,2.8209,2.8172,2.8114,2.8116,2.8118,2.8191,2.8199,2.8205,0,0,0,0,0,2.867,2.8673,2.8648,2.8635,2.8548,2.8501,2.8489,2.843,2.8408,2.8405,2.8353,2.831,2.8218,2.8212,2.8199,2.8203,2.8113,2.8115,2.8117,2.8188,2.8197,2.8205,0,0,0,0,0,0,2.8751,2.8662,2.8633,2.8612,2.8565,2.8486,2.848,2.8442,2.8398,2.8392,2.8319,2.8302,2.8274,2.8235,2.8232,2.8192,2.816,2.8159,2.8218,2.8226,2.8233,2.8241,2.8168,0,0,0,0,0,2.8768,2.8739,2.8662,2.8651,2.8629,2.8559,2.8536,2.8495,2.8442,2.8421,2.8366,2.8315,2.8273,2.8248,2.8206,2.8186,2.8165,2.8182,2.8189,2.8195,2.8194,2.8177,2.8182,2.8125,2.8125,2.8125,0,0,2.8799,2.8747,2.8733,2.8666,2.8624,2.8594,2.8543,2.8513,2.8489,2.8416,2.838,2.8338,2.8275,2.8247,2.8232,2.8214,2.8206,2.8197,2.8203,2.8198,2.8179,2.8185,2.819,2.8126,2.8126,2.8126,0,0,2.8841,2.8801,2.8786,2.8745,2.8684,2.8637,2.8634,2.856,2.853,2.8494,2.8437,2.8406,2.8338,2.8295,2.8264,2.8288,2.8245,2.8277,2.8311,2.8295,2.83,2.8303,2.8309,2.8312,2.8277,2.8277,2.8277,0,2.8888,2.8842,2.8782,2.8756,2.8726,2.8661,2.8643,2.8606,2.8533,2.8513,2.8494,2.8406,2.8359,2.8318,2.8324,2.8303,2.8293,2.8284,2.8305,2.8308,2.831,2.8314,2.8317,2.8281,2.828,2.828,2.828,0,2.8901,2.887,2.8865,2.8798,2.8768,2.8746,2.868,2.8656,2.8617,2.8572,2.8533,2.8475,2.8419,2.8407,2.8368,2.8359,2.835,2.8319,2.8285,2.832,2.8323,2.8324,2.8287,2.8285,2.8284,2.8283,0,0,2.899,2.889,2.8889,2.8856,2.8783,2.8757,2.873,2.8677,2.8657,2.8609,2.8582,2.8526,2.8496,2.8461,2.8417,2.8404,2.8422,2.8374,2.8371,2.8382,2.8406,2.8427,2.8431,2.8395,2.8395,2.8395,2.841,0,2.9018,2.897,2.8915,2.8884,2.8852,2.879,2.8766,2.8717,2.8674,2.8639,2.8589,2.8549,2.8516,2.8493,2.8478,2.8424,2.8426,2.8422,2.8366,2.8365,2.8381,2.8432,2.8455,2.8472,2.8411,2.8411,2.8411,0,2.9045,2.9001,2.8968,2.8896,2.888,2.8861,2.8806,2.8775,2.8717,2.8686,2.8647,2.8599,2.8565,2.8537,2.8487,2.8486,2.8459,2.8429,2.8428,2.8418,2.8388,2.8421,2.8476,2.8478,2.8413,2.8413,2.8412,0,2.9109,2.9042,2.9013,2.8987,2.8903,2.889,2.8854,2.8796,2.8766,2.8718,2.8698,2.8646,2.8616,2.8576,2.8514,2.85,2.8469,2.8437,2.8439,2.8441,2.8434,2.8434,2.8483,2.8422,2.8422,2.8422,2.8422,0,2.9144,2.9126,2.904,2.9022,2.8998,2.8934,2.8911,2.8869,2.8817,2.8787,2.873,2.8702,2.8624,2.8586,2.8538,2.8502,2.849,2.8461,2.8448,2.8465,2.8468,2.8444,2.844,2.8422,2.8422,2.8422,2.8422,0,2.9211,2.9154,2.9117,2.9041,2.9021,2.9007,2.894,2.8918,2.8872,2.8835,2.8822,2.8748,2.8701,2.8636,2.8568,2.8535,2.8504,2.8485,2.8525,2.8516,2.8521,2.8521,2.8554,2.8554,2.8497,2.8497,2.8498,0,2.9236,2.9221,2.9143,2.912,2.9087,2.905,2.9021,2.8956,2.8927,2.8859,2.8844,2.8793,2.8748,2.8675,2.8613,2.856,2.8537,2.8553,2.8529,2.8545,2.8534,2.8534,2.8531,2.8558,2.8559,2.856,2.856,0,2.9286,2.9258,2.9219,2.9169,2.9136,2.9093,2.9047,2.9031,2.8956,2.8926,2.8878,2.8843,2.8774,2.8722,2.8661,2.862,2.8576,2.8569,2.8566,2.8581,2.8604,2.8589,2.8537,2.8567,2.8567,2.8566,2.8566,2.8565,2.933,2.9313,2.9255,2.9212,2.9172,2.913,2.9105,2.9056,2.9016,2.8956,2.892,2.8873,2.8812,2.8726,2.8687,2.8647,2.8629,2.8626,2.8625,2.8624,2.8629,2.8613,2.8636,2.8635,2.8635,2.8635,2.8634,0,2.9374,2.9335,2.9296,2.9235,2.92,2.9166,2.9113,2.9085,2.9045,2.8994,2.8952,2.8895,2.8844,2.8779,2.8723,2.8703,2.8681,2.869,2.8689,2.868,2.8649,2.8655,2.8708,2.8708,2.8708,2.8708,2.8708,2.8708,2.9393,2.9361,2.9326,2.9271,2.923,2.9185,2.9158,2.9118,2.9076,2.9016,2.8975,2.8934,2.8875,2.8814,2.8765,2.8747,2.8727,2.8742,2.8717,2.8689,2.8682,2.8676,2.8682,2.8739,2.8739,2.8751,2.8751,2.8751]}]]